KLM663 LMML-LGTS

Flight info

Callsign KLM663
Flight time 1h 21m
Altitude 36000
Route VESOD DCT INROF DCT AMREX DCT DINOB/N0435F350 DCT YNN UM600 LOPOS
Aircraft B738/M-SDE2E3FGHIRWXY/LB1

Departure

Time 2026-05-06 12:54
Airport Malta International Airport (LMML)

Arrival

Time 2026-05-06 14:15
Airport Thessaloniki Macedonia International Airport (LGTS)
Time Latitude Longitude Altitude Speed Heading
2026-05-06 12:30 35.84770 14.49565 251 ft 0 kts
2026-05-06 12:49 35.84775 14.49563 251 ft 2 kts 345°
2026-05-06 12:49 35.84787 14.49547 251 ft 3 kts 301°
2026-05-06 12:49 35.84788 14.49522 251 ft 4 kts 261°
2026-05-06 12:49 35.84786 14.49480 251 ft 6 kts 277°
2026-05-06 12:50 35.84807 14.49435 251 ft 7 kts 314°
2026-05-06 12:50 35.84848 14.49381 251 ft 10 kts 314°
2026-05-06 12:50 35.84896 14.49322 251 ft 9 kts 315°
2026-05-06 12:50 35.84933 14.49256 251 ft 8 kts 290°
2026-05-06 12:51 35.84926 14.49192 251 ft 9 kts 239°
2026-05-06 12:51 35.84908 14.49124 251 ft 8 kts 275°
2026-05-06 12:51 35.84935 14.49058 251 ft 10 kts 301°
2026-05-06 12:51 35.84969 14.48971 251 ft 13 kts 290°
2026-05-06 12:52 35.84992 14.48882 251 ft 10 kts 288°
2026-05-06 12:52 35.85016 14.48801 252 ft 10 kts 291°
2026-05-06 12:52 35.85041 14.48723 252 ft 10 kts 291°
2026-05-06 12:52 35.85046 14.48665 252 ft 4 kts 239°
2026-05-06 12:53 35.85027 14.48656 252 ft 2 kts 178°
2026-05-06 12:53 35.85005 14.48675 252 ft 13 kts 140°
2026-05-06 12:53 35.84816 14.48907 251 ft 63 kts 135°
2026-05-06 12:53 35.84396 14.49429 253 ft 107 kts 135°
2026-05-06 12:54 35.83772 14.50199 258 ft 146 kts 135°
2026-05-06 12:54 35.83017 14.51124 662 ft 155 kts 134°
2026-05-06 12:54 35.82244 14.52065 1267 ft 157 kts 135°
2026-05-06 12:54 35.81529 14.53124 1748 ft 166 kts 121°
2026-05-06 12:55 35.81183 14.54497 2202 ft 180 kts 96°
2026-05-06 12:55 35.81355 14.56125 2521 ft 203 kts 77°
2026-05-06 12:55 35.81931 14.57812 2889 ft 222 kts 71°
2026-05-06 12:55 35.82630 14.59585 3346 ft 237 kts 69°
2026-05-06 12:56 35.83384 14.61457 3841 ft 254 kts 67°
2026-05-06 12:56 35.84249 14.63466 4190 ft 277 kts 66°
2026-05-06 12:56 35.85163 14.65607 4835 ft 284 kts 66°
2026-05-06 12:56 35.86031 14.67663 5752 ft 279 kts 66°
2026-05-06 12:57 35.86903 14.69756 6789 ft 272 kts 66°
2026-05-06 12:57 35.87757 14.71850 7492 ft 277 kts 66°
2026-05-06 12:57 35.88631 14.74029 7942 ft 291 kts 66°
2026-05-06 12:57 35.89551 14.76325 8305 ft 307 kts 66°
2026-05-06 12:58 35.90506 14.78734 8851 ft 315 kts 66°
2026-05-06 12:58 35.91455 14.81150 9773 ft 308 kts 66°
2026-05-06 12:58 35.92367 14.83482 10865 ft 296 kts 66°
2026-05-06 12:58 35.93248 14.85759 11644 ft 295 kts 66°
2026-05-06 12:59 35.94121 14.88074 12130 ft 302 kts 66°
2026-05-06 12:59 35.94999 14.90464 12376 ft 318 kts 66°
2026-05-06 12:59 35.95916 14.93016 12714 ft 330 kts 66°
2026-05-06 12:59 35.96843 14.95605 13355 ft 330 kts 66°
2026-05-06 13:00 35.97773 14.98202 13975 ft 331 kts 66°
2026-05-06 13:00 35.98708 15.00820 14483 ft 336 kts 66°
2026-05-06 13:00 35.99651 15.03468 15014 ft 338 kts 66°
2026-05-06 13:00 36.00602 15.06143 15521 ft 341 kts 66°
2026-05-06 13:01 36.01561 15.08844 15997 ft 345 kts 66°
2026-05-06 13:01 36.02529 15.11577 16463 ft 349 kts 66°
2026-05-06 13:01 36.03503 15.14331 16968 ft 351 kts 66°
2026-05-06 13:01 36.04479 15.17100 17452 ft 353 kts 66°
2026-05-06 13:02 36.05527 15.19846 17910 ft 355 kts 62°
2026-05-06 13:02 36.06714 15.22531 18351 ft 357 kts 59°
2026-05-06 13:02 36.07973 15.25190 18795 ft 359 kts 59°
2026-05-06 13:02 36.09242 15.27862 19235 ft 361 kts 59°
2026-05-06 13:03 36.10509 15.30555 19673 ft 363 kts 59°
2026-05-06 13:03 36.11766 15.33232 20067 ft 365 kts 59°
2026-05-06 13:03 36.13060 15.35950 20455 ft 367 kts 58°
2026-05-06 13:03 36.14459 15.38612 20840 ft 369 kts 54°
2026-05-06 13:04 36.15973 15.41200 21221 ft 371 kts 52°
2026-05-06 13:04 36.17560 15.43726 21587 ft 373 kts 51°
2026-05-06 13:04 36.19168 15.46257 21946 ft 375 kts 51°
2026-05-06 13:04 36.20783 15.48816 22291 ft 377 kts 51°
2026-05-06 13:05 36.22401 15.51388 22638 ft 379 kts 51°
2026-05-06 13:05 36.24010 15.53943 22972 ft 381 kts 51°
2026-05-06 13:05 36.25645 15.56540 23297 ft 383 kts 51°
2026-05-06 13:05 36.27290 15.59149 23616 ft 385 kts 51°
2026-05-06 13:06 36.28943 15.61773 23929 ft 387 kts 51°
2026-05-06 13:06 36.30603 15.64407 24248 ft 389 kts 51°
2026-05-06 13:06 36.32277 15.67056 24560 ft 390 kts 51°
2026-05-06 13:06 36.33952 15.69715 24838 ft 392 kts 51°
2026-05-06 13:07 36.35633 15.72391 25121 ft 394 kts 51°
2026-05-06 13:07 36.37324 15.75083 25407 ft 395 kts 51°
2026-05-06 13:07 36.39020 15.77785 25671 ft 397 kts 51°
2026-05-06 13:07 36.40699 15.80470 25933 ft 399 kts 51°
2026-05-06 13:08 36.42405 15.83200 26202 ft 400 kts 51°
2026-05-06 13:08 36.44114 15.85937 26460 ft 402 kts 51°
2026-05-06 13:08 36.45835 15.88688 26706 ft 404 kts 50°
2026-05-06 13:08 36.47724 15.91272 26943 ft 404 kts 43°
2026-05-06 13:09 36.49718 15.93735 27229 ft 405 kts 45°
2026-05-06 13:09 36.50774 15.95168 27335 ft 406 kts 47°
2026-05-06 13:09 36.53164 15.98792 27612 ft 410 kts 51°
2026-05-06 13:10 36.54355 16.00688 27754 ft 411 kts 51°
2026-05-06 13:10 36.56705 16.04396 28049 ft 412 kts 50°
2026-05-06 13:10 36.57895 16.06253 28205 ft 413 kts 50°
2026-05-06 13:10 36.59685 16.09050 28419 ft 414 kts 50°
2026-05-06 13:11 36.61483 16.11866 28612 ft 416 kts 50°
2026-05-06 13:11 36.63297 16.14688 28808 ft 417 kts 50°
2026-05-06 13:11 36.65118 16.17506 29006 ft 418 kts 50°
2026-05-06 13:11 36.66945 16.20342 29196 ft 420 kts 50°
2026-05-06 13:12 36.68770 16.23187 29415 ft 420 kts 50°
2026-05-06 13:12 36.70583 16.26009 29585 ft 422 kts 50°
2026-05-06 13:12 36.72424 16.28861 29773 ft 423 kts 50°
2026-05-06 13:12 36.74280 16.31731 29951 ft 424 kts 50°
2026-05-06 13:13 36.76145 16.34582 30130 ft 425 kts 49°
2026-05-06 13:13 36.78085 16.37378 30291 ft 426 kts 47°
2026-05-06 13:13 36.80057 16.40149 30468 ft 427 kts 48°
2026-05-06 13:13 36.81989 16.42968 30609 ft 428 kts 49°
2026-05-06 13:14 36.83881 16.45859 30768 ft 430 kts 50°
2026-05-06 13:14 36.85745 16.48784 30928 ft 431 kts 51°
2026-05-06 13:14 36.87590 16.51688 31089 ft 432 kts 50°
2026-05-06 13:14 36.89474 16.54636 31243 ft 433 kts 50°
2026-05-06 13:15 36.91363 16.57590 31380 ft 435 kts 50°
2026-05-06 13:15 36.93255 16.60549 31512 ft 436 kts 50°
2026-05-06 13:15 36.95148 16.63509 31661 ft 437 kts 50°
2026-05-06 13:15 36.97042 16.66487 31811 ft 438 kts 51°
2026-05-06 13:16 36.98935 16.69480 31963 ft 438 kts 51°
2026-05-06 13:16 37.00829 16.72464 32171 ft 437 kts 51°
2026-05-06 13:16 37.02727 16.75438 32353 ft 437 kts 50°
2026-05-06 13:16 37.04636 16.78398 32553 ft 436 kts 50°
2026-05-06 13:17 37.06544 16.81282 32770 ft 434 kts 48°
2026-05-06 13:17 37.08577 16.84093 32932 ft 434 kts 45°
2026-05-06 13:17 37.10706 16.86773 33094 ft 433 kts 43°
2026-05-06 13:17 37.12767 16.89259 33236 ft 433 kts 43°
2026-05-06 13:18 37.14937 16.91882 33402 ft 433 kts 43°
2026-05-06 13:18 37.17098 16.94523 33571 ft 433 kts 43°
2026-05-06 13:18 37.19249 16.97164 33731 ft 432 kts 43°
2026-05-06 13:18 37.21398 16.99802 33862 ft 432 kts 43°
2026-05-06 13:19 37.23550 17.02441 33999 ft 433 kts 43°
2026-05-06 13:19 37.25703 17.05071 34176 ft 432 kts 43°
2026-05-06 13:19 37.27855 17.07701 34342 ft 431 kts 43°
2026-05-06 13:19 37.29979 17.10299 34491 ft 431 kts 43°
2026-05-06 13:20 37.32119 17.12926 34675 ft 429 kts 43°
2026-05-06 13:20 37.34243 17.15532 35001 ft 424 kts 43°
2026-05-06 13:20 37.36344 17.18103 35266 ft 420 kts 43°
2026-05-06 13:20 37.38434 17.20659 35392 ft 420 kts 43°
2026-05-06 13:21 37.40543 17.23226 35409 ft 423 kts 43°
2026-05-06 13:21 37.42658 17.25802 35521 ft 423 kts 43°
2026-05-06 13:21 37.44766 17.28372 35680 ft 422 kts 43°
2026-05-06 13:21 37.46876 17.30944 35816 ft 421 kts 43°
2026-05-06 13:22 37.48986 17.33512 35932 ft 421 kts 43°
2026-05-06 13:22 37.53209 17.38661 36036 ft 424 kts 43°
2026-05-06 13:23 37.57450 17.43832 36062 ft 429 kts 43°
2026-05-06 13:23 37.61781 17.49112 36052 ft 435 kts 43°
2026-05-06 13:24 37.66281 17.54294 36054 ft 440 kts 40°
2026-05-06 13:24 37.70798 17.59528 36066 ft 446 kts 43°
2026-05-06 13:25 37.75282 17.65022 36071 ft 451 kts 43°
2026-05-06 13:25 37.79805 17.70574 36064 ft 455 kts 43°
2026-05-06 13:26 37.84361 17.76159 36060 ft 455 kts 43°
2026-05-06 13:26 37.88887 17.81743 36057 ft 453 kts 43°
2026-05-06 13:27 37.93369 17.87250 36065 ft 452 kts 43°
2026-05-06 13:27 37.97904 17.92775 36066 ft 452 kts 44°
2026-05-06 13:28 38.02152 17.98692 36063 ft 454 kts 49°
2026-05-06 13:28 38.06288 18.04758 36060 ft 454 kts 48°
2026-05-06 13:29 38.10423 18.10750 36059 ft 454 kts 48°
2026-05-06 13:29 38.14590 18.16781 36071 ft 453 kts 48°
2026-05-06 13:30 38.18756 18.22811 36077 ft 453 kts 48°
2026-05-06 13:30 38.22885 18.28801 36082 ft 454 kts 48°
2026-05-06 13:31 38.27047 18.34840 36084 ft 453 kts 48°
2026-05-06 13:31 38.31209 18.40879 36081 ft 453 kts 48°
2026-05-06 13:32 38.35377 18.46935 35932 ft 458 kts 48°
2026-05-06 13:32 38.37463 18.49957 35698 ft 447 kts 47°
2026-05-06 13:32 38.39512 18.52908 35338 ft 445 kts 47°
2026-05-06 13:33 38.43673 18.58800 35128 ft 455 kts 46°
2026-05-06 13:33 38.47964 18.64829 35099 ft 462 kts 47°
2026-05-06 13:34 38.52254 18.71004 35084 ft 465 kts 47°
2026-05-06 13:34 38.56437 18.77054 35087 ft 463 kts 47°
2026-05-06 13:35 38.60705 18.83207 35094 ft 461 kts 47°
2026-05-06 13:35 38.64948 18.89367 35104 ft 461 kts 47°
2026-05-06 13:36 38.69205 18.95512 35103 ft 462 kts 47°
2026-05-06 13:36 38.73464 19.01703 35101 ft 464 kts 50°
2026-05-06 13:37 38.77220 19.08380 35103 ft 466 kts 55°
2026-05-06 13:37 38.80835 19.15285 35101 ft 465 kts 54°
2026-05-06 13:38 38.84480 19.22147 35111 ft 466 kts 54°
2026-05-06 13:38 38.88126 19.29038 35109 ft 466 kts 54°
2026-05-06 13:39 38.91741 19.35884 35111 ft 466 kts 54°
2026-05-06 13:39 38.95403 19.42770 35105 ft 466 kts 54°
2026-05-06 13:40 38.99060 19.49644 35105 ft 466 kts 54°
2026-05-06 13:40 39.02716 19.56540 35106 ft 466 kts 54°
2026-05-06 13:41 39.06350 19.63396 35101 ft 467 kts 54°
2026-05-06 13:41 39.09925 19.70165 35102 ft 467 kts 54°
2026-05-06 13:42 39.13591 19.77080 35108 ft 467 kts 54°
2026-05-06 13:42 39.17263 19.83969 35109 ft 466 kts 54°
2026-05-06 13:43 39.20931 19.90877 35111 ft 467 kts 54°
2026-05-06 13:43 39.24580 19.97742 35109 ft 467 kts 54°
2026-05-06 13:44 39.28252 20.04664 35110 ft 467 kts 53°
2026-05-06 13:44 39.31946 20.11575 35110 ft 467 kts 53°
2026-05-06 13:45 39.35632 20.18469 35111 ft 466 kts 53°
2026-05-06 13:45 39.41161 20.28811 35110 ft 466 kts 53°
2026-05-06 13:46 39.44893 20.35603 35109 ft 466 kts 51°
2026-05-06 13:46 39.48726 20.42377 35109 ft 467 kts 52°
2026-05-06 13:47 39.52446 20.49299 35112 ft 468 kts 53°
2026-05-06 13:47 39.56133 20.56236 35104 ft 466 kts 53°
2026-05-06 13:48 39.59817 20.63146 35108 ft 465 kts 52°
2026-05-06 13:48 39.63491 20.70051 35117 ft 464 kts 53°
2026-05-06 13:49 39.67136 20.76909 35110 ft 464 kts 52°
2026-05-06 13:49 39.70734 20.83869 35110 ft 466 kts 57°
2026-05-06 13:50 39.73652 20.91428 34909 ft 471 kts 63°
2026-05-06 13:50 39.74994 20.95337 34428 ft 476 kts 64°
2026-05-06 13:50 39.76346 20.99265 33962 ft 476 kts 63°
2026-05-06 13:51 39.77713 21.03180 33486 ft 474 kts 63°
2026-05-06 13:51 39.79083 21.07084 33088 ft 472 kts 63°
2026-05-06 13:51 39.80443 21.10960 32742 ft 472 kts 63°
2026-05-06 13:51 39.81806 21.14853 32359 ft 471 kts 63°
2026-05-06 13:52 39.83159 21.18719 32050 ft 469 kts 63°
2026-05-06 13:52 39.84506 21.22552 31562 ft 471 kts 62°
2026-05-06 13:52 39.85867 21.26413 31159 ft 466 kts 62°
2026-05-06 13:52 39.87217 21.30230 30745 ft 461 kts 62°
2026-05-06 13:53 39.88553 21.34002 30319 ft 457 kts 62°
2026-05-06 13:53 39.89884 21.37750 29885 ft 455 kts 62°
2026-05-06 13:53 39.91216 21.41480 29456 ft 453 kts 62°
2026-05-06 13:53 39.92539 21.45184 29018 ft 450 kts 61°
2026-05-06 13:54 39.93864 21.48860 28582 ft 445 kts 61°
2026-05-06 13:54 39.95194 21.52493 28140 ft 441 kts 60°
2026-05-06 13:54 39.96519 21.56031 27711 ft 439 kts 60°
2026-05-06 13:54 39.97776 21.59444 27295 ft 436 kts 61°
2026-05-06 13:55 39.99038 21.63034 26859 ft 433 kts 62°
2026-05-06 13:55 40.00272 21.66606 26402 ft 431 kts 62°
2026-05-06 13:55 40.01505 21.70158 25948 ft 427 kts 62°
2026-05-06 13:55 40.02733 21.73675 25500 ft 424 kts 61°
2026-05-06 13:56 40.03960 21.77164 25049 ft 421 kts 61°
2026-05-06 13:56 40.05179 21.80629 24571 ft 418 kts 61°
2026-05-06 13:56 40.06388 21.84059 24108 ft 414 kts 61°
2026-05-06 13:56 40.07579 21.87415 23658 ft 411 kts 60°
2026-05-06 13:57 40.08784 21.90789 23193 ft 409 kts 60°
2026-05-06 13:57 40.09988 21.94141 22722 ft 405 kts 60°
2026-05-06 13:57 40.11187 21.97464 22171 ft 403 kts 60°
2026-05-06 13:57 40.12394 22.00750 21640 ft 398 kts 60°
2026-05-06 13:58 40.13562 22.04024 21123 ft 395 kts 62°
2026-05-06 13:58 40.14292 22.06202 20789 ft 394 kts 63°
2026-05-06 13:58 40.15365 22.09491 20306 ft 393 kts 63°
2026-05-06 13:58 40.16437 22.12757 19806 ft 389 kts 63°
2026-05-06 13:59 40.17513 22.15985 19348 ft 384 kts 63°
2026-05-06 13:59 40.18582 22.19180 18842 ft 383 kts 63°
2026-05-06 13:59 40.19645 22.22356 18379 ft 379 kts 63°
2026-05-06 13:59 40.20697 22.25498 17912 ft 376 kts 63°
2026-05-06 14:00 40.21742 22.28625 17465 ft 373 kts 64°
2026-05-06 14:00 40.22782 22.31720 17003 ft 371 kts 64°
2026-05-06 14:00 40.23824 22.34798 16567 ft 368 kts 64°
2026-05-06 14:00 40.24861 22.37846 16124 ft 365 kts 64°
2026-05-06 14:01 40.25875 22.40818 15740 ft 361 kts 64°
2026-05-06 14:01 40.26904 22.43824 15276 ft 361 kts 64°
2026-05-06 14:01 40.27923 22.46664 14839 ft 357 kts 59°
2026-05-06 14:01 40.29346 22.49289 14371 ft 350 kts 46°
2026-05-06 14:02 40.31147 22.51385 13971 ft 344 kts 33°
2026-05-06 14:02 40.33212 22.52938 13498 ft 341 kts 23°
2026-05-06 14:02 40.35404 22.54080 12988 ft 338 kts 18°
2026-05-06 14:02 40.37630 22.55051 12513 ft 336 kts 17°
2026-05-06 14:03 40.39843 22.56017 12052 ft 334 kts 18°
2026-05-06 14:03 40.42034 22.57011 11582 ft 332 kts 18°
2026-05-06 14:03 40.44204 22.57996 11020 ft 328 kts 18°
2026-05-06 14:03 40.46309 22.58925 10637 ft 317 kts 18°
2026-05-06 14:04 40.48359 22.59808 10445 ft 301 kts 18°
2026-05-06 14:04 40.50296 22.60693 10255 ft 290 kts 19°
2026-05-06 14:04 40.52187 22.61555 9876 ft 286 kts 19°
2026-05-06 14:04 40.54066 22.62391 9483 ft 285 kts 19°
2026-05-06 14:05 40.55944 22.63216 9090 ft 284 kts 19°
2026-05-06 14:05 40.57807 22.64031 8718 ft 281 kts 19°
2026-05-06 14:05 40.59667 22.64837 8316 ft 280 kts 18°
2026-05-06 14:05 40.61515 22.65636 7949 ft 279 kts 19°
2026-05-06 14:06 40.63350 22.66427 7711 ft 276 kts 19°
2026-05-06 14:06 40.65174 22.67217 7432 ft 276 kts 19°
2026-05-06 14:06 40.66994 22.68003 7088 ft 274 kts 19°
2026-05-06 14:06 40.68789 22.68843 6806 ft 273 kts 25°
2026-05-06 14:07 40.70436 22.70043 6566 ft 273 kts 34°
2026-05-06 14:07 40.71993 22.71471 6315 ft 272 kts 36°
2026-05-06 14:07 40.73534 22.72907 6038 ft 269 kts 36°
2026-05-06 14:07 40.75048 22.74298 5778 ft 261 kts 36°
2026-05-06 14:08 40.76516 22.75643 5563 ft 252 kts 36°
2026-05-06 14:08 40.77895 22.77020 5297 ft 245 kts 46°
2026-05-06 14:08 40.78769 22.78892 4964 ft 241 kts 77°
2026-05-06 14:08 40.78804 22.81025 4820 ft 227 kts 104°
2026-05-06 14:09 40.78243 22.82908 4644 ft 216 kts 119°
2026-05-06 14:09 40.77580 22.84602 4509 ft 205 kts 117°
2026-05-06 14:09 40.77027 22.86280 4410 ft 193 kts 112°
2026-05-06 14:09 40.76579 22.87885 4310 ft 181 kts 116°
2026-05-06 14:10 40.75836 22.89142 4197 ft 173 kts 147°
2026-05-06 14:10 40.74714 22.89713 4240 ft 176 kts 169°
2026-05-06 14:10 40.73505 22.90039 4287 ft 179 kts 167°
2026-05-06 14:10 40.72293 22.90443 4084 ft 179 kts 166°
2026-05-06 14:11 40.71085 22.90854 3748 ft 178 kts 166°
2026-05-06 14:11 40.69903 22.91242 3456 ft 172 kts 166°
2026-05-06 14:11 40.68757 22.91625 3087 ft 169 kts 166°
2026-05-06 14:11 40.67624 22.92001 2800 ft 168 kts 166°
2026-05-06 14:12 40.66496 22.92375 2589 ft 166 kts 166°
2026-05-06 14:12 40.65399 22.92741 2297 ft 164 kts 166°
2026-05-06 14:12 40.64310 22.93103 2237 ft 155 kts 166°
2026-05-06 14:12 40.63268 22.93448 2048 ft 153 kts 167°
2026-05-06 14:13 40.62238 22.93788 1857 ft 152 kts 167°
2026-05-06 14:13 40.61223 22.94121 1669 ft 149 kts 167°
2026-05-06 14:13 40.60220 22.94450 1464 ft 148 kts 167°
2026-05-06 14:13 40.59222 22.94776 1286 ft 147 kts 167°
2026-05-06 14:14 40.58227 22.95099 1091 ft 148 kts 167°
2026-05-06 14:14 40.57228 22.95427 900 ft 148 kts 167°
2026-05-06 14:14 40.56231 22.95747 695 ft 146 kts 167°
2026-05-06 14:14 40.55242 22.96062 507 ft 146 kts 167°
2026-05-06 14:15 40.54254 22.96383 312 ft 146 kts 167°
2026-05-06 14:15 40.53272 22.96688 122 ft 142 kts 167°
2026-05-06 14:15 40.52366 22.96971 27 ft 123 kts 167°
2026-05-06 14:15 40.51794 22.97149 26 ft 35 kts 166°
2026-05-06 14:16 40.51598 22.97212 28 ft 21 kts 164°
2026-05-06 14:16 40.51521 22.97293 28 ft 9 kts 112°
2026-05-06 14:16 40.51518 22.97359 27 ft 7 kts 72°
2026-05-06 14:16 40.51554 22.97400 27 ft 8 kts 15°
2026-05-06 14:17 40.51613 22.97393 27 ft 10 kts 348°
2026-05-06 14:17 40.51677 22.97374 27 ft 9 kts 346°
2026-05-06 14:17 40.51743 22.97352 27 ft 11 kts 345°
2026-05-06 14:17 40.51788 22.97338 26 ft 5 kts 346°
2026-05-06 14:18 40.51831 22.97324 26 ft 8 kts 347°
2026-05-06 14:18 40.51896 22.97304 25 ft 12 kts 346°
2026-05-06 14:18 40.51982 22.97277 25 ft 11 kts 346°
2026-05-06 14:18 40.52053 22.97255 26 ft 11 kts 346°
2026-05-06 14:19 40.52131 22.97228 26 ft 13 kts 346°
2026-05-06 14:19 40.52225 22.97198 26 ft 15 kts 347°
2026-05-06 14:19 40.52311 22.97172 26 ft 11 kts 348°
2026-05-06 14:19 40.52362 22.97187 26 ft 6 kts 40°
2026-05-06 14:20 40.52384 22.97238 26 ft 7 kts 76°
2026-05-06 14:20 40.52394 22.97307 26 ft 7 kts 83°
2026-05-06 14:20 40.52387 22.97354 26 ft 4 kts 103°
2026-05-06 14:20 40.52393 22.97389 26 ft 4 kts 56°
2026-05-06 14:21 40.52407 22.97409 26 ft 2 kts 48°
2026-05-06 14:21 40.52416 22.97422 26 ft 1 kts 46°
2026-05-06 14:21 40.52420 22.97427 26 ft 0 kts 46°